Theta_e
320 325 328 327 327 326 323 317 311 311 315 317 319 319 317 320 321 320 319 315 308 305 305 305 305 305 305 305 304 304 304 304 305 306 307 307 308 308 309 309 310 310 309 309 307 307 310 314 318 318 318 317 316 315 314 315 314 314 317 318 317 316 313 313 314 313 309 308 306 306 309 309 309 309 310 310 309 309 309 309 308 308 309 309 310
323 327 328 327 327 324 319 317 313 315 321 321 319 317 316 320 321 319 319 314 306 304 305 304 305 306 305 304 304 305 305 306 308 308 309 309 309 310 309 310 310 310 310 310 310 309 307 308 311 313 314 314 313 313 313 314 313 312 314 317 317 315 313 313 315 313 310 308 307 307 309 309 309 309 310 310 310 310 309 309 309 308 309 309 310
327 327 327 326 326 323 319 319 317 318 322 321 317 314 315 319 319 317 316 312 305 304 305 304 305 306 305 306 306 307 308 308 309 309 309 310 309 309 309 309 309 309 310 309 309 310 310 309 310 311 312 313 313 313 313 313 313 313 314 315 314 313 313 314 315 313 310 308 308 308 309 310 309 309 310 310 310 310 309 309 310 309 309 309 310
326 326 326 326 326 324 320 319 319 320 321 320 316 313 315 317 315 313 314 311 305 305 306 305 306 306 306 307 308 308 309 310 310 310 309 310 310 310 309 310 310 310 311 312 311 311 310 311 312 313 313 313 314 314 314 313 313 314 314 314 313 314 314 314 314 314 312 310 309 309 309 310 309 309 310 310 310 310 310 310 310 310 310 310 310
324 324 325 325 326 324 321 319 321 322 321 320 317 315 317 317 314 312 313 311 306 305 308 309 308 308 307 307 308 309 310 310 310 310 310 310 310 310 310 310 310 311 313 315 315 315 313 312 312 311 312 314 315 314 314 314 314 314 314 314 314 314 314 314 314 314 313 312 311 309 309 311 310 310 310 311 310 310 310 310 310 310 310 310 310
325 325 325 324 324 323 320 321 322 322 321 319 316 316 317 317 315 313 312 310 308 309 312 312 311 311 310 308 309 309 309 310 310 310 310 310 310 310 310 311 312 313 315 315 315 316 316 315 314 312 312 313 314 314 314 315 315 315 314 314 314 315 314 314 314 314 313 312 311 310 311 311 310 310 311 311 311 311 311 310 310 310 310 310 310
325 325 325 324 324 323 322 321 321 321 322 320 317 317 317 317 316 313 312 311 311 313 316 315 314 314 314 313 313 312 310 310 311 310 310 310 310 311 312 313 314 315 315 315 315 315 315 315 315 314 314 314 314 314 314 315 315 315 315 315 315 315 314 314 314 314 314 313 311 311 311 311 310 311 311 311 311 311 311 311 310 311 311 311 311
324 323 322 323 324 324 322 320 319 320 321 321 320 319 319 318 315 312 313 313 313 315 318 317 315 316 317 317 317 316 315 314 314 313 312 313 314 314 315 316 316 316 316 316 316 316 316 315 315 315 315 315 315 314 314 314 314 315 315 315 315 315 314 314 314 314 314 313 312 312 311 311 311 312 312 311 311 311 311 311 311 311 311 311 311
321 321 321 322 322 323 321 319 320 321 321 321 321 320 320 318 314 311 314 316 315 316 318 317 316 316 317 317 317 317 317 317 317 316 316 317 317 317 317 317 317 317 317 317 317 317 317 317 316 316 316 316 316 316 316 315 315 315 314 315 315 315 315 315 315 315 314 314 314 313 312 312 312 313 313 312 312 311 312 312 311 311 311 311 312
322 322 322 322 322 323 322 320 320 321 321 321 321 320 320 319 316 313 315 317 317 317 318 318 317 316 316 317 317 316 317 317 317 317 317 318 318 318 318 318 318 318 318 319 319 318 318 317 317 316 317 317 316 317 316 316 315 315 315 315 315 315 315 314 314 315 315 314 314 314 314 314 314 313 313 313 312 312 312 312 312 312 312 312 312
323 323 323 323 323 324 323 322 321 321 320 321 321 320 320 320 318 316 317 319 319 319 319 319 318 317 316 316 317 317 317 317 317 318 318 318 318 318 318 318 318 318 318 319 319 319 318 317 316 316 316 316 316 316 317 317 316 315 315 315 314 314 314 313 314 315 315 315 315 314 314 314 314 314 313 313 313 312 312 312 312 312 312 311 311
322 323 323 324 324 324 324 323 322 320 320 322 322 321 321 321 320 318 318 319 319 319 319 319 319 318 317 316 316 317 317 317 318 318 318 319 319 318 318 318 318 319 319 319 319 319 319 318 317 317 316 316 316 316 317 318 317 317 317 316 315 314 313 314 315 315 315 315 315 315 315 314 314 314 313 313 313 313 313 312 312 312 311 310 310
321 322 322 323 323 323 323 323 323 322 322 323 323 323 322 322 321 319 318 318 318 319 319 319 319 319 318 318 317 317 317 317 318 318 318 318 318 318 318 318 318 318 318 318 318 319 319 318 317 318 317 317 316 316 317 318 318 317 317 317 316 316 315 315 315 315 315 314 314 314 314 314 314 314 314 313 313 312 312 312 312 311 310 309 308
318 319 320 321 321 321 322 321 321 321 321 321 321 322 322 322 321 320 319 319 318 320 320 320 319 319 319 319 318 318 318 317 318 318 318 318 318 318 318 318 318 318 318 318 318 318 317 316 316 317 318 318 317 316 317 318 318 318 318 317 317 316 316 316 316 315 315 314 314 314 314 314 314 314 313 313 312 312 312 311 311 310 309 308 307
313 313 315 316 316 318 319 319 319 319 319 319 319 319 319 320 320 318 318 318 318 319 320 321 320 320 320 320 319 319 319 318 318 318 318 318 318 318 318 318 318 319 319 319 318 317 316 315 315 316 317 317 317 316 316 317 317 318 318 318 317 317 317 316 316 315 315 315 315 315 314 314 314 313 313 312 312 312 311 310 310 309 308 306 304
311 311 311 312 312 314 315 316 317 317 317 317 317 317 317 317 316 316 317 318 318 318 318 318 318 318 318 319 319 319 319 319 319 319 319 319 319 318 318 318 318 319 319 318 318 317 317 316 316 316 316 317 316 316 316 317 317 317 317 317 317 317 317 316 316 315 315 315 315 314 314 314 313 312 312 312 311 311 310 309 308 306 305 303 302
311 311 311 311 311 312 312 313 314 314 314 315 316 317 318 318 318 318 319 319 320 319 317 316 315 315 315 315 315 315 316 316 317 317 318 318 318 318 317 318 318 318 318 318 317 317 317 317 317 316 316 316 316 316 317 317 317 317 316 315 316 318 317 317 316 315 315 315 314 314 313 312 312 311 311 311 310 309 307 306 304 303 302 301 300
311 311 311 311 311 311 311 312 312 312 313 314 314 315 316 317 317 318 318 318 317 316 315 315 315 314 314 313 313 313 312 313 313 314 314 315 316 316 317 317 318 318 318 318 317 317 317 317 317 316 316 315 316 317 317 317 317 317 313 312 314 316 315 315 314 313 313 313 313 313 313 312 311 310 310 309 307 306 304 303 302 301 301 300 300
310 310 310 310 310 310 310 310 311 311 312 312 313 313 314 314 314 315 315 314 314 314 314 314 313 313 313 313 314 314 313 313 312 312 312 313 313 313 314 315 316 317 317 317 317 317 317 316 316 315 315 316 317 317 317 316 316 314 310 308 309 310 310 311 310 309 310 311 311 312 311 310 310 308 307 306 305 304 303 302 301 300 300 300 300
308 308 309 310 310 310 309 309 309 310 310 310 311 311 312 312 312 313 313 313 313 313 313 313 312 313 313 314 315 315 314 314 313 312 311 311 311 311 312 312 313 314 315 316 316 316 316 316 316 315 315 316 316 316 316 316 314 311 310 308 306 306 307 307 307 306 307 308 308 308 308 308 307 307 306 305 304 303 302 301 300 300 300 300 299
304 305 305 306 307 307 307 308 307 307 307 307 308 308 309 310 310 311 311 311 312 312 312 312 313 313 313 313 314 314 314 314 314 314 312 311 311 311 311 311 311 312 313 314 314 316 316 315 315 314 314 315 315 315 315 314 312 310 309 307 305 305 306 305 305 306 307 307 307 308 307 307 307 306 305 304 303 302 301 300 300 300 299 299 299
300 300 300 300 301 301 301 302 302 302 302 302 302 303 304 305 306 306 307 307 307 308 309 310 311 312 312 312 312 312 313 313 314 314 314 313 312 311 310 310 310 311 312 313 314 316 315 315 315 314 313 313 314 314 314 314 312 311 309 308 307 306 306 306 307 307 308 308 308 308 308 307 306 305 304 303 302 301 300 300 299 299 299 299 298
299 299 298 298 299 299 299 299 299 299 299 299 299 299 299 299 300 301 301 302 302 302 303 304 306 308 310 311 311 312 312 312 312 313 313 313 313 312 311 310 310 311 312 313 315 315 315 314 314 314 313 312 313 313 314 314 312 309 307 307 307 307 306 307 308 308 309 309 308 308 307 306 305 304 302 301 300 300 299 299 299 299 298 298 298
299 298 298 298 298 298 298 299 299 299 299 299 299 299 299 298 298 299 299 300 301 302 302 302 303 304 305 307 309 310 310 311 311 311 311 311 312 313 313 311 310 310 312 314 316 315 314 314 314 314 313 312 313 314 313 312 309 306 305 306 307 307 307 308 309 309 309 308 307 306 306 305 303 302 301 300 299 299 299 299 298 298 298 297 297
298 298 298 298 298 298 298 298 298 298 298 298 298 299 299 299 299 298 299 299 300 301 302 302 303 303 303 304 305 306 307 308 309 310 311 310 311 313 313 312 311 310 312 314 315 315 314 314 314 314 313 312 313 312 310 308 306 305 305 306 307 308 308 309 309 308 308 307 306 305 304 303 302 300 300 299 299 299 298 298 297 297 296 296 295
297 297 297 297 297 297 297 297 297 297 297 297 297 298 298 298 299 299 299 299 299 299 300 301 301 302 303 303 304 304 304 306 307 308 309 310 310 311 312 312 312 312 312 313 315 315 314 314 314 313 311 310 309 309 307 305 304 304 306 307 308 309 309 308 308 308 307 306 304 303 302 301 300 299 299 299 298 298 297 297 296 295 294 294 294
297 297 297 297 297 297 297 297 297 297 296 296 296 297 297 297 298 298 298 299 299 299 299 300 300 301 301 302 303 303 303 304 305 306 308 309 310 310 310 311 312 313 313 314 314 314 313 313 314 313 309 307 306 306 305 304 303 303 305 308 308 308 308 307 306 305 304 303 302 301 300 299 299 299 298 298 297 297 296 295 294 294 293 293 293
297 297 297 297 297 297 297 296 296 296 296 296 296 296 296 296 296 297 297 298 298 298 299 299 299 300 300 300 301 302 302 303 304 305 307 308 309 310 310 310 310 311 311 310 311 311 310 309 311 312 309 306 305 305 304 304 303 302 303 305 305 305 305 304 303 302 301 300 300 299 299 298 298 297 297 296 295 294 294 293 293 293 293 293 293
298 298 297 297 297 297 296 296 296 295 295 295 295 295 295 295 295 295 296 296 296 297 297 298 299 299 299 299 300 300 301 302 302 303 304 306 307 308 309 309 308 308 307 306 306 309 309 309 310 310 308 306 305 304 304 303 303 302 302 302 302 302 302 301 300 300 299 299 298 297 297 296 296 295 295 294 293 293 293 293 293 293 293 293 292
297 296 296 296 295 295 295 295 295 295 295 295 295 295 295 295 294 294 295 295 295 295 295 296 297 298 298 299 299 299 300 300 301 301 302 303 304 305 307 308 308 308 308 306 304 304 307 309 310 309 307 306 304 303 302 303 302 302 302 302 301 301 300 300 299 298 298 297 297 296 295 294 294 294 293 293 293 293 292 292 292 292 292 292 292
296 296 295 295 295 295 294 294 294 294 294 294 294 294 295 295 295 295 295 295 295 295 295 295 295 296 296 297 298 299 299 299 300 300 301 302 302 302 304 307 307 307 307 306 304 301 302 306 309 308 306 305 304 302 302 303 303 302 302 301 300 299 299 298 298 297 297 296 296 295 294 293 293 293 292 292 292 292 292 292 292 292 292 292 291
296 296 296 296 295 295 294 294 294 294 294 294 294 294 295 295 295 295 295 295 295 295 295 295 295 295 295 296 296 297 298 299 299 300 300 301 301 301 302 305 307 307 306 305 304 303 303 305 308 308 305 303 303 302 302 303 302 302 301 300 299 299 298 297 297 297 296 295 295 294 293 293 292 292 292 292 292 292 292 292 292 292 292 291 290
296 296 296 296 295 295 295 294 294 294 294 294 294 294 294 295 295 295 295 295 295 295 295 295 295 294 294 295 295 296 297 298 299 300 300 300 301 301 301 303 305 306 306 304 304 304 305 306 307 307 305 303 302 302 302 302 302 302 301 300 299 298 297 297 296 296 295 295 294 293 293 292 292 292 291 291 291 291 291 291 292 292 291 291 290
295 295 295 295 295 295 294 294 294 294 294 294 294 294 294 294 294 295 295 295 295 296 295 295 294 294 294 294 295 296 297 298 299 300 300 300 301 301 301 302 304 305 306 305 304 304 304 304 305 305 304 303 302 302 302 302 302 302 301 300 299 298 297 296 296 296 295 295 294 293 292 292 291 291 291 290 290 290 291 291 291 291 291 290 290
295 295 295 295 295 295 294 294 294 294 294 294 294 293 294 294 294 294 294 294 295 296 296 296 295 295 294 295 295 296 297 299 300 300 300 300 300 300 301 302 303 304 305 306 305 305 304 303 304 304 304 303 303 302 302 302 301 301 301 300 298 298 297 296 296 295 295 294 294 293 292 292 291 290 290 290 290 290 290 291 291 291 290 290 289
295 294 295 295 295 295 294 294 294 294 294 295 294 294 294 294 294 294 294 294 294 295 296 296 296 296 295 295 296 296 297 299 300 300 300 300 300 300 301 301 302 303 304 305 305 304 303 303 303 303 303 303 302 302 302 301 300 300 300 299 298 297 297 296 295 295 294 294 293 292 292 291 291 290 290 290 290 290 290 290 290 290 290 289 289
294 294 294 295 295 294 294 294 294 295 295 296 295 295 295 295 295 295 295 295 295 296 296 296 297 296 296 296 296 297 298 299 299 300 300 300 300 301 301 301 301 302 303 304 304 304 303 303 302 302 303 302 302 302 302 300 299 299 299 298 297 297 296 295 295 294 294 293 293 292 292 291 291 290 290 290 290 290 291 291 290 289 289 289 290
295 294 294 295 294 293 294 295 295 295 296 296 296 296 296 296 296 296 296 296 296 296 297 297 297 297 297 297 297 297 298 298 299 299 300 300 301 301 301 301 302 303 303 303 304 304 303 303 302 302 302 302 302 301 300 298 297 298 298 297 296 296 295 295 294 294 293 293 292 292 292 291 291 290 290 290 290 291 291 291 289 289 289 289 289
295 294 294 294 294 294 294 295 295 295 296 296 296 296 296 296 296 296 297 296 296 296 296 297 297 298 298 298 298 298 298 298 299 300 300 300 301 301 301 301 302 303 303 303 304 304 303 303 302 302 302 301 300 300 299 297 296 297 297 296 296 295 295 295 294 294 293 292 292 292 292 291 290 290 290 290 290 291 290 290 289 289 289 289 289
295 294 294 294 294 294 295 295 295 295 295 295 296 296 296 296 296 296 296 296 296 296 296 297 297 297 297 297 298 298 298 299 299 300 300 300 300 300 300 301 301 302 302 303 303 303 303 303 302 302 301 300 299 298 297 296 296 296 296 296 295 295 295 295 294 293 292 292 292 291 291 290 290 290 289 290 290 290 289 289 289 289 289 290 290
295 295 294 294 294 294 295 295 295 294 294 294 295 295 296 296 296 296 295 295 295 296 296 297 297 297 297 297 297 298 298 298 299 299 299 299 300 300 300 301 301 301 301 302 301 301 302 301 301 300 300 299 298 297 297 297 296 296 296 295 295 295 295 294 293 292 292 292 292 291 290 290 289 289 289 290 290 289 289 289 289 290 290 290 291
295 295 295 294 294 294 294 294 294 294 293 293 294 294 295 295 295 295 295 295 295 296 297 297 297 297 297 297 297 298 298 298 298 298 298 299 299 299 300 300 300 301 301 301 300 300 300 300 300 300 299 298 297 297 297 296 296 296 295 295 295 295 294 293 292 292 291 291 291 290 290 289 289 289 289 290 290 289 289 289 290 290 290 290 290
295 295 295 295 295 294 294 294 294 294 294 293 293 294 294 295 295 296 295 295 296 296 297 296 296 296 297 297 297 297 297 297 297 297 298 298 298 298 299 299 299 299 299 300 299 299 298 298 298 298 297 297 297 297 297 296 296 296 296 295 294 293 292 292 292 292 291 291 290 289 289 289 289 289 289 289 290 289 289 290 290 290 291 291 290
295 295 295 295 295 295 295 294 293 293 293 293 293 293 294 294 295 296 296 296 296 296 296 296 296 296 296 296 296 296 297 297 297 297 297 297 297 297 298 299 299 298 298 299 299 298 298 297 296 296 296 296 296 296 295 295 295 295 294 293 292 292 292 292 291 291 290 290 289 288 288 289 288 289 289 289 289 289 290 290 290 290 290 291 291
295 295 295 295 295 295 295 294 293 293 293 292 292 293 294 294 295 295 296 296 296 296 296 295 295 295 295 296 296 296 296 296 297 297 297 297 297 296 296 296 297 297 297 297 297 297 296 296 296 296 296 296 295 295 295 294 294 293 292 292 292 292 291 291 290 289 288 288 288 288 288 288 288 288 288 288 289 289 290 290 290 290 290 291 290
295 295 295 295 295 295 294 293 293 292 292 292 292 293 294 295 295 295 295 296 296 295 295 295 295 295 295 295 295 295 296 296 296 296 297 297 297 296 295 295 295 295 295 295 295 296 296 297 297 297 296 295 295 295 294 293 293 292 292 292 291 291 289 288 288 287 287 287 288 287 287 287 287 288 288 288 289 289 290 290 290 290 290 290 290
295 295 294 295 296 295 294 293 292 292 292 292 293 293 294 295 295 295 295 295 296 295 295 295 295 295 295 295 295 295 295 295 296 296 296 296 296 296 296 296 296 296 296 296 296 296 296 296 296 295 295 294 294 293 293 292 292 292 291 290 289 288 287 287 287 287 287 287 287 287 287 287 287 287 288 288 288 289 290 290 290 290 290 290 290
295 295 294 295 295 295 294 293 293 293 293 293 293 293 294 295 295 295 295 295 295 295 295 295 295 295 295 295 295 295 295 295 295 295 295 295 295 296 296 296 296 296 296 296 295 295 295 294 294 293 293 293 292 292 292 292 291 290 289 288 287 287 287 287 287 287 288 288 288 287 287 288 288 288 288 288 288 289 289 290 290 290 289 290 291
295 295 294 294 295 295 295 294 294 293 294 294 294 294 294 294 294 295 295 295 295 295 295 295 294 294 295 295 295 295 295 295 295 295 295 295 295 295 295 295 295 295 294 294 294 293 293 292 292 292 292 291 291 291 290 290 289 289 289 289 288 288 288 289 289 290 290 290 289 289 289 289 289 289 289 288 288 288 288 289 289 289 289 289 290
295 295 295 294 294 295 295 295 294 294 293 294 294 294 294 294 294 294 294 295 295 295 295 295 295 294 294 294 294 295 295 295 295 295 294 294 294 294 294 294 294 294 293 293 292 291 291 291 291 291 290 290 290 289 289 289 289 290 290 290 290 290 290 291 291 291 291 290 290 290 290 290 290 290 289 289 288 288 288 288 289 289 289 289 290
295 295 295 295 294 294 294 295 295 294 293 293 293 294 294 294 294 294 294 294 294 295 295 295 295 295 294 294 294 294 294 294 294 294 294 294 293 293 293 293 293 293 292 291 290 290 290 291 290 290 289 288 288 288 289 290 290 291 291 291 291 291 291 291 291 291 291 291 290 290 290 290 290 290 290 289 289 288 288 288 289 289 289 289 289
Wind_Speed
29 27 25 25 24 20 17 16 16 15 14 15 15 14 14 12 10 9 7 4 6 9 10 12 13 13 14 15 16 16 16 18 19 19 19 18 17 16 15 14 13 14 14 13 12 11 13 16 16 15 13 11 10 9 9 10 8 8 14 20 21 19 16 9 4 6 9 8 6 5 5 6 5 5 6 5 4 5 5 6 5 3 1 2 5
26 26 25 24 22 19 17 16 16 16 15 15 15 14 15 13 11 10 7 5 7 9 11 13 14 14 16 18 19 19 19 20 20 19 18 16 15 14 13 13 12 12 12 11 12 12 12 14 15 15 14 12 11 10 8 8 9 8 10 17 22 21 15 9 7 7 9 10 10 8 7 6 4 3 3 3 3 4 5 4 4 2 2 3 4
20 22 24 25 22 20 19 19 18 17 16 15 14 15 15 14 12 10 7 6 8 11 12 15 16 16 17 19 20 20 20 20 19 17 16 14 13 12 11 10 9 10 10 10 10 11 12 14 15 14 14 12 10 9 9 7 7 8 12 16 20 18 13 9 9 9 10 11 11 10 8 6 5 3 2 2 2 4 5 4 3 4 5 5 5
16 18 19 21 22 21 20 20 19 17 15 13 13 14 14 13 12 9 7 7 9 12 13 14 15 16 17 19 19 19 19 19 17 15 13 12 11 10 9 7 6 7 8 9 9 9 11 13 14 13 12 12 10 10 10 9 8 10 14 17 18 16 13 10 8 8 10 12 11 10 8 6 5 5 5 5 5 5 6 6 5 5 6 6 7
15 18 18 18 20 19 17 17 17 16 13 11 11 12 13 12 10 9 7 7 10 12 13 14 15 15 16 17 17 17 17 17 16 15 12 11 10 8 7 7 7 7 7 7 7 7 8 10 12 12 12 11 11 11 11 11 11 12 13 14 15 15 13 12 10 8 9 12 12 11 9 8 8 8 8 7 7 6 7 8 7 7 7 8 10
14 17 18 18 19 19 18 18 17 16 14 12 11 11 12 10 8 8 8 8 10 12 12 12 13 14 14 14 15 14 14 14 15 15 14 12 10 9 9 9 10 10 9 8 7 6 7 7 9 11 12 13 14 14 14 13 12 12 13 13 13 13 13 13 12 9 9 11 12 12 11 11 10 10 9 9 8 8 9 10 10 10 10 11 12
12 14 14 14 16 19 21 20 18 16 14 13 12 12 12 10 8 8 9 9 11 12 11 10 11 12 12 11 11 11 11 11 11 12 13 12 10 10 11 12 12 11 10 8 8 8 8 7 7 8 11 13 15 16 16 16 15 13 13 14 14 15 14 14 13 12 11 12 13 13 13 13 12 11 11 12 10 10 10 11 12 12 12 13 15
9 10 11 13 14 16 19 20 18 18 16 14 14 14 13 11 10 11 11 11 12 13 12 10 10 11 11 10 9 9 8 8 8 9 10 10 10 9 11 13 13 11 10 10 10 10 10 9 8 8 9 11 13 15 16 17 17 15 14 15 15 15 15 14 14 14 14 13 14 15 16 16 14 13 13 14 13 13 13 13 14 15 15 16 18
6 6 8 11 13 13 16 20 21 19 17 16 16 15 14 12 11 13 13 12 14 14 12 12 12 13 13 12 11 11 11 10 9 10 10 10 10 10 10 11 11 10 10 11 11 12 12 11 10 10 10 11 12 14 15 16 16 15 14 15 17 17 16 15 13 14 16 16 16 17 18 17 16 14 14 15 15 15 15 15 16 17 18 18 20
5 5 7 10 13 13 15 19 21 20 17 17 17 15 14 12 12 13 13 13 14 14 13 13 13 14 15 15 13 14 14 14 13 13 13 12 12 11 11 11 11 12 12 12 12 12 12 12 12 12 13 13 13 15 17 17 17 17 16 17 19 19 19 17 15 15 17 18 18 19 18 17 17 16 15 16 16 17 17 16 17 18 18 19 20
7 7 9 12 14 14 14 17 19 19 17 16 16 15 14 13 12 13 14 14 14 14 14 14 14 15 16 16 16 16 16 16 16 16 16 16 15 14 14 14 15 15 15 15 15 14 14 15 15 15 15 16 16 17 19 20 20 21 20 19 21 22 22 21 18 17 19 21 20 19 18 17 17 17 17 17 17 17 17 17 17 18 19 20 21
13 12 11 12 13 14 16 17 17 17 17 16 16 16 15 14 14 14 15 14 13 14 15 16 16 17 17 17 18 18 17 16 15 16 17 18 18 17 17 18 18 19 19 19 18 18 17 18 18 19 19 19 19 19 21 21 22 22 22 21 21 22 22 21 20 19 20 23 22 20 19 18 18 17 17 18 18 17 17 17 17 18 19 20 21
18 16 14 12 12 12 13 13 13 14 16 16 16 16 16 16 16 17 17 16 15 14 15 17 18 19 19 19 19 20 19 18 17 17 18 19 20 20 20 20 21 22 22 21 21 20 20 21 22 22 22 22 22 23 24 23 22 22 23 22 21 21 20 20 19 18 19 21 22 21 20 19 18 17 17 17 17 16 17 17 18 19 20 21 23
21 20 18 17 15 13 12 12 10 9 10 10 11 12 14 16 18 19 18 18 17 16 15 17 19 20 20 20 21 22 22 22 22 22 22 22 23 23 23 23 24 24 23 22 22 22 23 24 25 25 25 25 25 26 26 26 25 24 23 22 21 21 20 19 19 19 18 19 19 19 19 18 17 17 17 17 17 17 17 18 19 20 21 22 22
25 24 22 20 18 16 15 14 13 12 11 10 9 9 10 12 15 16 16 16 18 18 18 18 20 21 22 22 23 24 24 25 25 25 25 25 25 26 26 26 26 25 24 22 23 24 24 25 25 26 28 28 26 26 27 27 27 26 23 21 21 21 20 19 19 19 18 18 18 17 17 17 17 17 17 17 17 17 18 19 20 22 22 21 20
25 23 22 21 19 18 15 13 11 11 10 9 9 9 8 8 8 9 8 9 12 14 13 12 14 16 18 20 22 24 24 25 26 26 26 26 26 27 27 27 27 26 25 24 24 25 25 26 26 27 29 29 26 24 24 26 26 25 23 21 21 21 20 19 19 19 18 18 17 17 16 16 15 16 16 16 16 17 18 19 20 20 19 18 19
20 19 18 17 16 15 14 12 11 10 8 6 5 5 5 6 6 6 7 8 10 10 9 8 8 9 11 12 15 17 19 21 23 24 25 26 26 26 26 26 26 26 25 25 24 25 26 26 26 27 29 28 25 22 23 24 24 23 21 20 20 20 20 19 19 18 18 18 17 17 16 14 14 14 14 15 16 17 18 18 17 18 18 19 20
14 13 13 12 10 9 10 10 9 9 8 7 6 5 6 7 8 9 10 11 11 11 11 11 10 9 9 10 11 14 16 17 18 20 21 22 23 24 24 25 26 26 25 25 25 26 27 26 26 27 26 24 23 22 22 23 23 22 19 17 17 18 18 18 18 18 18 17 16 16 15 14 13 13 14 15 15 16 16 16 16 17 18 19 20
6 6 6 6 5 4 5 5 6 6 6 6 7 7 8 9 10 11 12 12 12 13 13 14 14 13 12 11 12 14 15 15 16 18 18 19 20 21 22 23 25 25 26 25 25 26 26 26 25 24 23 22 22 21 22 23 23 19 16 15 15 15 16 17 17 16 15 14 14 13 13 13 13 14 14 14 15 15 16 16 16 17 18 19 20
1 2 3 4 5 6 6 7 7 8 9 9 10 10 11 12 13 13 13 14 15 15 16 17 17 16 15 15 16 17 17 16 16 17 18 18 19 20 21 22 23 23 24 24 24 24 24 24 23 21 20 20 21 22 23 23 20 16 15 15 13 13 15 16 15 13 12 11 12 12 12 12 13 13 13 13 14 14 15 15 16 16 17 18 19
5 7 8 9 10 11 11 12 12 13 14 15 16 16 16 17 18 18 18 18 19 18 18 19 19 18 18 17 17 18 19 18 18 19 19 19 19 20 22 22 23 23 23 23 23 23 23 23 22 21 19 20 22 23 23 21 17 15 15 14 13 13 15 15 13 12 11 10 11 11 11 12 12 13 13 13 14 14 15 15 16 17 18 19 20
8 9 9 10 10 11 12 13 14 15 16 18 19 20 20 21 22 23 24 24 24 24 24 24 24 23 22 21 20 19 19 19 19 20 20 20 20 22 22 22 22 23 24 24 23 23 23 22 21 21 21 22 22 22 21 19 17 16 16 15 15 15 15 13 12 11 11 10 10 11 12 13 13 14 14 14 15 15 15 15 16 18 19 19 20
10 10 11 11 11 11 11 12 13 14 15 16 17 18 19 21 21 22 23 24 25 25 26 26 27 28 27 26 25 23 22 20 20 20 20 21 22 24 24 23 22 23 25 25 25 24 24 24 23 22 22 22 22 21 21 20 18 18 18 16 16 15 14 13 12 11 10 11 12 13 13 14 14 14 14 14 14 14 15 15 16 18 18 19 20
12 12 12 13 13 12 12 12 13 14 14 14 15 16 17 18 19 19 20 21 22 22 22 23 24 26 28 28 28 27 26 24 23 21 21 21 23 26 27 25 23 24 25 25 26 26 26 25 25 24 23 22 22 21 21 21 20 19 18 17 16 15 14 14 13 13 12 12 13 13 13 14 14 14 14 14 14 15 15 16 17 18 18 19 21
12 12 13 13 12 12 12 12 12 12 13 13 14 14 15 16 16 17 18 19 20 21 21 21 21 22 23 25 25 26 26 26 25 23 22 20 20 24 27 27 25 26 27 27 28 28 27 25 26 27 26 25 24 23 23 21 20 18 17 17 16 16 16 15 14 14 13 13 13 13 13 14 14 14 14 14 14 15 15 16 17 18 20 21 22
11 12 12 12 11 11 11 11 11 11 12 12 12 13 14 15 16 16 17 17 18 20 21 22 22 21 21 21 22 23 23 24 24 23 21 19 18 22 27 30 29 28 29 31 31 28 26 26 28 30 29 26 24 23 23 21 20 18 17 17 17 16 16 15 14 14 14 13 14 13 12 13 13 13 13 14 15 16 16 18 19 21 22 24 24
11 11 11 9 9 9 10 10 11 11 11 12 12 12 13 15 16 17 18 18 18 19 20 21 22 22 22 22 22 21 21 20 21 21 20 19 19 22 27 31 32 32 31 31 32 32 30 29 29 29 28 25 23 22 21 20 19 19 18 17 17 16 15 14 14 14 14 13 13 12 12 12 13 13 14 15 16 18 19 20 21 21 22 24 24
10 8 8 7 8 9 11 12 12 13 13 13 12 12 12 13 14 15 16 18 19 19 21 21 22 22 23 23 23 24 22 19 17 17 18 19 20 22 25 26 27 28 25 21 23 26 27 26 27 27 26 24 24 24 22 21 20 18 18 17 16 15 14 14 13 12 12 11 11 11 11 12 13 14 15 16 18 19 19 19 19 20 22 23 24
8 7 7 8 9 10 11 13 14 14 15 14 13 12 11 12 13 13 13 14 16 18 21 22 23 23 24 23 23 24 25 23 18 15 16 17 18 21 24 24 23 22 18 16 19 22 19 19 25 28 26 26 28 26 23 22 21 18 17 16 15 13 12 11 10 10 9 8 8 9 10 11 12 14 15 16 17 16 16 17 18 20 21 23 23
9 8 9 10 11 13 13 14 14 14 15 15 14 13 11 11 12 12 12 12 13 15 18 21 23 24 25 25 24 24 25 25 23 20 18 17 15 16 19 21 21 20 17 15 20 23 20 20 26 28 27 29 28 23 19 20 19 17 15 14 12 11 9 9 8 8 7 7 7 7 9 11 12 13 14 14 14 14 15 17 18 20 21 22 22
11 11 13 13 14 15 15 14 14 14 15 16 17 17 15 13 11 11 12 13 13 14 16 18 20 22 24 26 27 26 24 24 24 23 21 19 16 12 13 16 18 18 17 16 19 23 24 24 26 28 27 26 23 19 18 18 16 14 12 11 10 8 7 6 6 6 6 6 6 7 9 10 10 11 12 12 13 14 16 17 19 20 21 23 22
13 13 14 14 15 15 15 16 17 18 19 19 19 20 20 18 16 14 13 13 13 14 15 16 18 20 22 24 26 27 26 24 24 24 22 21 18 12 10 12 14 15 15 16 17 20 22 23 26 28 27 23 21 20 20 17 13 10 9 9 8 6 5 5 6 6 5 5 6 7 9 9 9 10 11 12 13 15 16 18 19 19 21 23 23
12 13 14 14 15 15 16 18 20 20 19 18 18 19 20 19 19 18 17 16 15 14 14 16 17 19 20 20 21 23 23 22 22 22 21 22 21 16 10 10 12 13 15 16 17 18 18 18 21 25 26 24 22 19 17 14 10 8 8 7 6 5 6 7 7 6 6 6 7 8 9 8 8 9 11 12 15 16 17 19 19 18 20 23 21
11 12 13 14 14 14 15 18 18 16 15 16 17 18 18 17 17 18 19 20 19 16 14 14 14 14 16 18 19 19 19 18 19 21 21 22 22 19 14 11 13 15 17 19 19 20 21 20 21 22 24 24 21 18 16 15 13 11 10 9 7 6 7 7 7 7 8 8 8 8 8 8 8 10 11 13 15 17 18 19 18 18 20 22 17
12 12 12 12 12 13 14 15 14 13 15 16 17 17 16 16 15 15 17 19 19 17 15 13 11 9 9 12 15 17 17 16 16 18 20 21 21 20 18 16 16 18 19 20 20 20 23 25 24 23 24 24 22 19 17 17 16 14 12 10 8 8 8 9 9 9 8 7 8 7 7 8 8 10 12 13 16 18 18 18 18 19 20 18 12
13 14 13 11 11 12 11 10 12 14 15 16 17 16 15 14 13 13 14 16 16 16 15 13 11 8 6 8 11 14 14 13 13 16 18 21 21 22 21 20 19 19 20 22 22 21 23 25 26 26 27 26 24 21 19 18 17 15 12 10 9 9 10 10 10 9 8 7 8 7 6 6 8 9 12 15 17 18 18 18 19 18 15 11 8
15 15 14 12 11 9 8 8 11 13 14 16 18 18 15 13 13 14 15 15 15 15 14 12 11 9 5 5 8 10 11 11 12 15 18 21 22 23 23 22 21 20 20 21 22 22 23 24 25 26 27 26 24 22 21 20 19 15 13 11 10 10 10 11 10 9 8 8 7 5 5 6 8 10 13 16 18 18 17 17 16 12 8 7 9
16 16 14 11 9 7 7 9 11 12 13 15 17 18 17 16 16 16 17 16 15 14 13 12 11 10 7 6 7 9 10 11 12 14 18 21 23 24 24 23 22 22 22 22 22 23 23 24 23 22 21 23 24 23 23 22 20 17 14 12 11 11 11 12 11 10 9 8 5 4 5 6 8 10 13 16 17 15 13 10 9 9 8 8 9
15 16 12 8 6 6 7 9 10 11 13 14 14 15 16 16 17 18 18 18 16 14 13 11 10 10 10 10 9 10 10 12 12 12 14 17 19 21 22 22 22 21 21 22 23 24 24 23 21 17 17 20 23 23 23 23 21 17 14 13 13 13 13 12 11 11 9 7 5 5 6 7 9 11 14 15 14 11 7 6 7 9 10 9 9
15 14 10 7 5 5 6 7 8 9 11 12 12 13 14 15 16 18 18 17 16 15 14 14 13 13 13 11 7 6 7 8 8 7 7 10 12 13 15 17 18 19 21 24 26 26 24 23 20 18 18 21 22 23 23 21 19 16 14 14 13 13 12 12 11 10 8 6 6 7 7 8 9 11 13 13 11 8 6 6 7 8 8 8 8
14 13 9 6 5 4 5 6 8 10 10 11 12 12 13 15 17 17 15 15 15 15 15 15 16 16 14 12 8 6 6 8 10 10 7 2 4 5 8 11 13 15 17 20 22 21 19 18 18 20 22 24 24 23 22 19 17 15 14 13 12 12 12 11 11 9 8 7 7 8 8 8 9 10 11 10 9 7 6 5 6 7 7 6 7
14 12 9 7 6 5 5 6 9 10 12 13 13 12 13 15 15 14 13 13 14 14 15 15 16 15 13 12 11 11 11 11 13 13 12 9 6 3 1 3 5 7 8 11 15 17 17 18 20 21 23 22 21 20 19 17 15 14 13 11 11 11 10 10 9 9 9 9 9 8 8 8 8 9 9 9 7 5 4 5 5 6 6 6 7
13 11 8 7 7 7 6 8 9 10 13 16 15 11 12 14 13 12 12 12 13 14 16 16 16 15 14 15 15 14 14 13 13 13 12 11 9 7 6 5 5 7 8 11 15 17 18 20 22 24 23 21 19 18 16 14 13 12 10 9 9 9 8 8 9 10 11 11 10 9 8 7 8 8 9 9 7 4 4 4 5 6 6 6 8
13 11 8 7 8 7 8 9 9 10 12 14 11 8 10 12 12 11 11 12 13 14 16 16 15 14 14 15 14 12 11 11 11 11 11 10 10 9 9 8 8 10 12 13 15 17 19 23 26 26 23 21 19 16 14 12 10 9 9 8 8 8 8 9 10 12 12 11 9 8 7 7 7 8 8 8 5 3 4 3 5 6 6 7 9
12 12 9 7 7 7 8 9 8 9 10 9 6 6 8 10 11 10 10 10 11 13 15 15 15 15 14 13 12 10 8 7 7 7 7 7 10 13 15 14 14 16 18 19 20 22 25 26 25 21 19 18 16 13 11 10 9 8 8 8 8 8 8 9 10 10 9 8 7 6 6 5 6 7 8 7 2 3 3 4 6 6 6 9 10
11 13 12 9 7 7 7 6 5 6 7 7 5 4 5 7 9 9 9 9 10 11 13 14 15 14 13 12 11 10 10 8 6 5 3 5 9 13 17 20 21 22 23 23 23 23 22 19 15 13 13 13 11 9 9 8 7 6 7 7 8 8 8 8 8 7 6 6 5 4 3 4 5 7 7 4 2 3 3 4 5 5 7 9 10
9 12 13 12 9 6 5 6 7 7 7 7 6 5 4 5 6 7 7 8 9 10 11 12 12 11 10 10 9 9 9 9 7 6 6 8 9 10 11 13 14 14 14 14 14 14 13 11 10 10 10 8 6 7 8 7 5 5 5 6 6 5 5 5 5 4 4 3 2 0 1 2 3 5 5 2 3 4 3 3 4 4 6 8 9
7 10 11 11 11 10 9 10 10 9 8 8 8 7 6 6 6 6 6 8 9 9 8 9 9 8 8 7 7 7 7 7 8 8 10 10 11 10 8 7 6 6 7 9 11 11 11 11 11 9 7 5 4 6 6 5 4 4 4 3 3 4 5 6 6 5 4 4 4 4 3 3 4 6 7 6 2 3 3 0 3 4 5 7 8
4 8 9 9 9 9 10 10 10 10 10 9 9 9 8 7 7 7 6 6 7 6 7 8 8 8 8 8 6 5 6 7 8 9 10 10 9 8 7 6 6 7 8 10 11 11 10 9 8 6 5 5 5 5 5 4 4 5 5 6 7 8 9 8 7 6 6 6 5 5 4 4 5 6 7 6 4 1 1 0 3 5 6 6 6
2 5 8 9 8 8 8 8 8 9 9 9 9 9 8 8 8 7 5 5 5 5 6 7 8 8 9 9 8 7 7 7 8 9 9 9 9 8 7 6 7 8 8 9 10 9 8 7 7 6 6 5 5 5 6 6 7 8 7 8 8 8 7 7 6 5 5 5 4 3 3 3 4 4 5 5 5 4 2 1 3 5 6 5 5
1 2 5 7 7 7 7 6 6 6 7 8 9 9 8 7 7 6 5 4 4 4 4 5 6 7 7 8 8 7 7 8 9 10 9 8 8 7 7 7 7 7 7 7 7 7 6 6 6 6 6 6 6 7 8 8 8 8 7 6 6 5 5 4 4 3 3 3 3 2 2 3 3 4 4 4 4 4 3 2 3 6 6 6 5
Wind_Direction
201 195 191 189 185 181 179 179 179 182 185 187 186 184 185 188 195 206 213 198 167 161 160 162 163 162 159 154 151 148 145 141 138 135 133 131 130 128 128 126 121 115 117 119 123 142 164 169 171 175 182 193 197 200 208 212 213 207 203 207 211 213 214 218 232 205 184 186 198 192 180 174 154 112 107 121 130 125 119 120 114 90 22 354 10
200 195 191 186 179 172 169 171 174 178 184 188 189 189 190 194 200 209 212 191 167 163 161 161 161 160 153 148 146 145 145 145 143 140 139 138 136 135 133 132 129 124 125 127 126 133 151 165 172 177 182 191 196 196 201 209 220 215 193 200 208 208 211 224 234 218 202 196 198 202 200 188 176 151 120 117 125 132 136 138 139 164 252 288 338
193 191 188 180 172 166 163 166 173 180 187 192 193 192 196 199 202 209 209 184 166 165 163 161 161 161 156 152 150 150 151 151 149 146 146 144 140 138 135 133 132 133 136 141 142 145 152 159 166 172 178 186 191 194 192 187 195 191 176 185 199 201 204 221 231 226 216 206 200 203 201 189 184 194 194 190 188 178 186 200 205 219 245 269 309
198 198 188 174 165 161 162 167 173 183 194 199 197 194 198 203 203 208 210 185 168 165 164 161 160 162 162 160 159 158 158 158 157 156 153 149 146 143 138 140 146 149 153 155 153 157 165 170 175 181 189 198 201 197 195 192 189 183 177 182 192 198 198 200 208 218 218 211 205 201 202 201 190 189 209 228 224 213 221 243 256 252 257 269 293
215 219 213 197 178 170 174 177 175 182 195 201 199 197 201 207 206 209 208 184 169 166 162 162 163 164 167 169 169 169 165 163 165 168 166 163 162 158 155 165 178 180 179 172 162 162 172 183 192 200 206 208 206 199 196 200 200 194 194 195 198 200 196 191 197 205 207 207 203 197 205 214 200 197 220 238 238 237 243 252 258 261 267 276 289
217 216 213 205 193 187 191 188 181 185 193 193 192 197 203 209 211 212 205 185 175 168 163 169 172 170 172 175 178 180 177 173 173 177 181 182 180 179 183 189 195 197 197 195 191 185 185 192 200 210 214 212 211 208 203 206 211 208 209 213 213 208 197 194 202 201 191 196 198 199 207 211 201 203 218 229 243 263 266 262 261 264 273 282 290
219 213 207 199 191 186 185 185 187 192 194 190 190 198 204 208 209 204 194 184 184 178 171 180 187 182 182 184 187 192 191 187 186 186 189 193 194 193 193 196 201 207 211 216 218 217 217 219 215 214 219 219 219 220 218 218 222 222 217 217 220 217 207 201 201 195 188 191 196 201 207 207 205 212 218 221 236 257 262 259 258 261 269 278 286
209 210 214 211 198 183 180 189 199 201 200 197 195 197 203 208 207 198 189 184 187 187 184 191 198 195 197 203 206 209 210 208 207 204 201 202 208 212 208 204 206 212 219 226 232 235 238 243 243 234 231 228 226 228 228 227 228 228 225 219 215 213 211 209 203 196 194 193 195 200 205 206 210 218 221 221 230 242 249 253 255 260 269 277 285
189 190 205 209 200 186 186 197 205 205 203 202 200 200 202 206 201 194 192 188 187 191 194 199 205 206 205 210 217 223 227 229 229 227 222 218 222 229 226 219 220 225 229 232 236 240 244 249 253 251 246 241 238 236 234 230 229 230 228 220 212 207 206 207 206 204 202 197 195 198 203 209 216 222 223 224 230 238 245 251 256 262 270 278 286
176 185 190 186 185 185 187 197 204 204 202 202 204 206 205 206 203 195 194 195 193 198 204 204 207 209 209 212 221 227 231 235 238 238 235 233 236 242 244 244 247 248 249 248 245 245 250 254 256 256 253 251 250 245 239 233 229 229 230 225 218 214 213 215 217 216 211 206 201 201 205 212 219 223 227 231 236 240 245 252 259 267 274 280 287
147 162 172 170 171 175 178 189 198 202 204 205 207 208 207 209 209 198 195 200 203 208 213 212 214 218 218 218 223 228 232 236 238 238 238 237 238 244 253 259 260 258 258 258 254 253 256 261 262 260 256 257 258 253 246 239 233 232 234 231 224 221 224 230 234 230 222 216 210 208 210 215 220 225 230 234 240 245 252 259 267 274 280 286 292
123 129 144 159 170 173 176 186 196 203 208 209 208 208 209 214 214 205 201 208 216 220 222 222 225 229 231 228 229 232 237 239 239 238 237 235 235 242 253 260 262 261 260 259 256 252 255 261 264 263 259 259 261 258 250 244 239 235 234 233 229 227 230 237 242 240 230 223 219 217 218 220 224 230 234 237 241 249 257 265 273 279 287 293 298
111 113 117 129 145 158 169 182 195 205 210 211 212 214 217 219 217 210 206 209 218 225 228 229 230 233 233 232 232 235 240 243 243 243 242 241 242 248 254 258 260 260 261 261 257 253 256 262 265 264 260 257 260 259 252 246 242 236 231 230 230 230 233 236 238 236 232 229 227 227 227 229 233 237 240 244 248 254 261 268 276 283 290 294 296
104 106 109 113 118 129 139 143 150 164 179 191 202 212 218 220 219 219 221 221 222 228 235 236 235 235 235 234 234 236 239 243 246 248 250 252 255 258 260 260 261 260 260 260 259 257 260 263 265 265 263 259 260 258 251 244 241 237 233 229 227 229 231 233 231 228 228 230 231 232 234 236 239 243 247 252 258 263 268 274 280 286 289 292 295
100 100 102 103 104 111 121 126 127 128 131 140 151 166 188 205 214 223 233 235 234 238 244 246 244 244 244 244 243 242 242 244 246 249 252 254 257 259 261 262 261 260 258 258 259 259 260 260 261 262 263 262 259 255 249 245 241 236 233 230 227 227 229 229 228 226 227 231 234 237 240 242 244 248 251 256 262 266 272 277 281 285 288 292 297
104 102 100 98 97 99 105 112 116 119 124 131 139 144 150 166 187 205 224 239 243 244 249 253 252 253 253 252 250 249 248 249 249 250 252 255 257 258 260 260 260 259 258 259 260 261 260 259 258 259 261 260 256 248 244 243 239 234 232 232 229 227 227 228 227 227 230 235 238 242 245 246 247 250 254 259 264 269 274 279 283 286 290 294 298
110 110 107 104 103 104 108 111 112 115 121 130 138 144 153 165 183 206 222 234 238 238 241 244 248 257 264 264 261 258 257 257 256 255 254 255 257 258 258 259 258 258 259 260 260 261 260 259 258 258 258 255 247 237 234 235 232 227 228 229 226 224 225 226 227 229 232 236 240 244 247 248 250 253 259 264 270 276 281 285 289 291 293 295 298
115 119 119 116 115 117 124 131 131 130 134 144 156 167 181 192 203 211 217 223 227 231 235 235 238 249 263 274 279 276 271 269 267 265 261 259 258 258 259 260 260 260 260 259 259 259 258 257 256 255 253 245 234 227 226 227 226 222 220 218 216 219 223 225 226 228 231 235 239 243 246 250 254 258 264 270 277 284 287 288 289 290 293 296 299
116 126 132 138 147 156 163 172 178 176 176 180 184 189 196 205 214 219 223 230 234 239 246 249 252 255 256 260 270 275 276 276 274 272 272 271 269 267 264 262 260 259 258 257 257 255 254 254 253 248 242 234 225 221 220 223 223 220 215 214 216 219 220 221 223 226 230 234 237 240 244 248 253 259 267 276 283 287 289 290 292 293 295 296 298
302 263 251 233 224 226 228 230 233 233 231 229 227 226 225 227 230 233 236 240 242 244 249 253 256 256 252 249 252 259 265 268 270 273 274 275 276 276 271 266 264 261 258 257 255 252 250 250 246 237 231 229 224 219 218 220 220 217 216 221 225 220 215 216 219 221 224 227 230 234 241 247 255 265 274 282 287 289 290 291 291 290 291 292 294
288 276 271 263 254 251 250 250 250 250 250 249 248 247 245 245 245 246 246 247 247 247 247 248 251 250 248 246 247 250 255 257 260 265 269 271 275 278 277 273 270 268 263 260 255 249 246 244 238 231 228 227 223 220 219 218 217 216 221 225 223 218 216 218 219 219 221 224 230 238 247 255 264 273 280 285 286 285 284 283 283 285 288 292 296
284 280 278 276 271 267 264 261 259 258 256 254 254 252 251 250 251 252 253 253 254 253 251 250 250 250 249 249 250 250 250 252 254 257 261 265 269 274 277 276 272 270 266 261 254 246 241 238 233 231 231 228 225 223 222 221 219 221 224 224 217 215 218 222 224 225 227 232 240 248 256 263 270 276 281 283 282 280 280 281 284 288 291 294 297
287 286 286 285 285 284 279 275 271 267 264 262 261 259 256 255 254 253 254 255 255 256 255 253 252 251 251 251 252 252 251 251 253 255 256 258 262 267 269 267 266 267 265 260 252 241 237 235 231 232 236 235 232 227 221 219 222 225 226 223 217 218 223 228 230 231 233 239 247 254 261 268 274 279 281 280 278 279 281 284 287 290 293 296 298
294 294 293 291 292 290 287 284 281 278 275 271 269 268 265 263 260 258 256 255 255 255 256 256 254 254 253 252 253 255 254 253 254 255 254 255 259 262 260 258 258 260 261 258 248 238 237 239 235 233 235 235 231 225 220 220 223 225 224 223 221 224 228 230 232 234 238 244 252 259 266 272 277 279 278 277 279 282 285 288 290 292 294 296 297
298 297 295 295 296 295 293 292 289 286 284 281 278 276 274 270 268 265 262 259 258 258 258 258 258 257 257 256 256 257 258 258 257 255 253 254 259 261 257 253 252 253 253 250 244 239 240 241 236 232 231 227 221 217 216 218 221 222 223 224 224 227 229 230 233 237 242 249 256 262 269 272 275 277 278 281 285 288 289 291 293 294 295 294 295
303 300 299 300 300 298 296 296 294 292 291 289 286 284 280 277 275 272 269 266 263 262 262 261 261 260 260 259 258 258 261 262 261 258 254 252 256 260 256 251 248 247 248 246 242 238 236 234 231 230 225 217 214 216 215 214 215 216 217 220 223 227 229 231 236 242 248 254 260 264 268 270 273 277 280 283 285 287 290 293 294 294 294 294 294
312 304 302 301 301 303 307 308 307 307 305 301 296 291 285 281 277 275 273 271 267 265 264 263 263 263 262 261 258 257 258 261 263 261 256 251 251 254 257 256 249 241 241 243 238 229 222 220 226 232 228 218 212 211 209 207 208 210 212 215 219 224 228 234 241 247 251 255 257 259 263 267 272 275 276 279 282 286 290 292 293 294 296 297 298
327 318 314 313 313 316 319 320 318 315 311 309 307 304 297 289 282 277 274 274 272 270 268 266 266 266 266 264 262 258 255 257 262 263 258 253 251 253 259 267 263 253 252 258 250 234 223 218 220 226 227 218 208 202 201 203 208 209 211 214 218 223 230 236 239 242 245 247 249 254 259 262 265 268 272 278 284 288 290 292 296 300 303 305 307
339 331 323 318 316 316 317 317 316 313 311 310 309 307 304 300 294 286 279 276 275 274 272 270 269 268 268 269 268 265 260 258 258 263 262 256 256 257 259 265 273 276 281 283 269 255 246 236 230 225 218 210 206 203 202 202 201 201 206 212 219 224 226 227 228 230 233 236 242 249 253 257 263 269 276 283 287 290 294 300 306 311 313 314 313
348 340 336 332 326 324 322 320 319 317 315 313 309 306 304 300 294 288 281 274 271 272 272 270 269 268 267 267 267 268 268 266 262 262 264 262 262 267 265 262 266 274 277 271 261 253 246 241 237 229 217 211 208 202 196 194 193 194 200 204 210 214 211 210 215 218 221 229 242 253 262 269 273 277 281 285 288 295 304 311 316 318 319 320 318
356 352 351 350 344 339 336 333 330 327 324 321 320 318 316 310 298 286 280 278 275 271 269 267 267 267 266 265 263 262 265 269 267 264 264 263 261 269 277 269 261 262 265 264 256 246 238 232 229 223 215 211 205 193 189 194 196 195 194 193 196 200 199 204 213 218 227 244 262 274 279 281 280 281 284 288 295 306 312 315 318 320 322 324 321
351 348 345 346 344 342 341 340 338 334 330 328 326 324 322 318 312 304 298 296 293 287 279 274 268 265 263 264 263 260 259 263 266 264 262 260 257 258 274 272 256 246 250 251 244 237 232 228 225 218 209 199 191 187 191 199 202 200 199 200 201 200 201 212 223 232 245 263 276 279 277 276 277 284 292 299 306 312 314 315 317 319 320 321 319
335 332 331 333 335 337 339 340 338 336 335 335 333 331 328 324 321 319 318 318 316 310 300 290 279 270 265 265 265 262 258 258 261 261 256 253 249 244 247 259 251 239 236 237 236 232 227 223 222 218 206 193 188 191 199 209 216 220 223 220 210 204 209 218 228 241 252 262 267 268 269 275 285 296 305 310 312 314 314 314 316 316 314 315 319
345 333 330 329 331 336 338 337 337 341 347 349 345 342 340 337 332 330 328 328 330 330 322 311 298 282 272 268 265 260 254 251 252 253 251 247 240 232 227 236 243 239 236 238 242 242 236 227 218 210 203 198 197 201 210 219 219 218 221 217 204 207 218 224 234 245 250 257 267 273 280 291 300 307 311 314 315 315 313 313 312 311 310 313 322
5 350 340 335 337 340 339 337 343 355 0 357 351 346 344 342 339 335 332 332 334 338 338 335 329 310 284 272 264 255 250 249 245 243 245 243 234 225 220 225 233 236 234 233 236 241 242 236 226 215 210 210 209 211 217 218 212 209 215 213 205 214 229 235 241 246 249 262 278 288 294 300 305 310 313 317 317 314 311 309 308 307 311 316 324
3 353 347 342 341 340 339 346 358 3 3 1 357 352 349 348 346 343 340 336 334 334 336 339 340 334 307 275 259 249 249 256 251 242 244 245 237 227 222 222 227 232 232 229 228 231 236 238 235 231 227 223 219 217 216 210 202 204 211 212 212 224 236 239 241 243 247 265 282 292 296 298 304 313 318 321 319 313 309 306 304 306 314 322 322
358 353 350 349 347 346 354 5 6 3 5 6 4 1 2 6 5 360 354 348 342 338 337 338 337 332 309 269 259 255 259 270 265 249 244 243 237 230 227 224 225 230 235 235 232 230 230 232 235 237 235 229 222 216 206 196 194 198 202 206 214 226 232 232 233 239 251 268 281 288 291 296 306 317 322 321 318 312 307 304 304 311 324 324 313
354 355 356 355 354 359 10 10 6 6 8 9 7 6 10 14 13 9 4 1 358 353 347 342 336 328 314 292 275 268 272 281 277 259 245 236 232 231 230 228 229 234 239 242 239 236 234 235 236 235 230 223 216 204 190 184 190 196 198 202 210 218 221 224 231 245 261 273 281 291 300 306 313 319 322 321 317 311 307 309 320 333 340 329 318
355 358 0 358 358 9 10 5 4 6 7 7 6 4 5 7 6 2 358 358 1 3 359 352 348 345 336 318 296 283 287 294 289 270 248 235 231 232 232 231 229 231 236 241 241 240 239 236 230 223 219 215 204 187 175 178 189 196 199 204 208 210 214 224 239 254 266 277 292 305 311 313 316 320 322 320 316 313 319 338 346 343 341 339 336
359 1 360 353 348 352 356 357 357 356 0 4 3 359 358 359 354 350 350 356 7 16 18 18 21 20 10 354 332 312 312 320 326 318 281 251 238 233 233 232 231 231 234 237 237 236 233 227 216 206 202 197 185 172 170 180 191 197 202 206 207 209 216 231 246 257 267 283 302 310 312 312 315 319 320 318 317 324 340 356 357 351 347 346 345
3 1 356 345 329 329 346 350 342 341 348 354 353 353 358 356 350 347 353 6 19 26 28 31 34 32 27 27 35 38 25 18 22 25 19 318 221 216 227 236 238 238 237 235 230 224 219 213 202 191 185 181 176 173 177 186 196 201 203 205 210 218 227 237 245 254 268 286 300 306 305 305 310 315 315 315 319 331 350 11 17 6 352 342 340
4 358 349 335 322 329 349 348 339 340 344 345 346 354 4 3 359 1 9 20 28 32 34 36 38 38 40 47 53 51 43 36 34 40 52 73 95 113 184 236 232 226 225 223 214 204 199 197 191 183 179 178 178 178 181 188 196 200 203 211 222 230 234 238 244 256 271 284 292 293 290 293 304 310 309 305 308 323 3 34 26 0 344 342 344
5 358 347 329 318 321 333 339 341 342 338 337 343 0 14 16 18 21 23 26 30 34 36 38 39 44 53 58 57 53 49 45 43 46 57 74 88 93 94 106 139 167 181 190 191 188 184 180 174 169 169 174 178 181 184 190 196 202 210 220 225 225 229 239 252 265 275 280 280 277 276 285 299 304 303 305 312 341 42 38 3 337 334 346 350
6 3 355 334 324 322 319 321 329 333 330 333 347 15 25 28 33 33 29 29 30 31 34 36 40 50 62 67 65 62 57 54 54 59 69 82 92 97 104 121 145 159 164 169 172 171 168 164 161 160 163 168 173 176 179 181 187 198 207 212 215 223 238 253 262 268 271 270 267 264 269 283 294 298 303 310 327 45 70 19 341 332 335 345 351
5 8 5 347 334 329 317 313 321 333 337 345 18 45 37 37 44 41 33 31 31 34 38 39 41 50 61 68 71 70 63 54 51 56 72 95 104 106 111 121 133 141 145 149 153 157 159 159 158 159 162 164 166 172 177 181 188 197 204 212 225 238 249 255 258 260 260 256 254 257 267 280 292 300 306 308 322 93 71 354 342 348 350 349 350
2 9 9 356 335 321 319 329 352 6 8 19 46 62 50 50 53 47 38 36 39 44 47 46 45 49 56 59 62 62 58 52 47 48 74 118 127 123 122 123 125 127 131 136 141 147 152 153 153 156 160 161 165 177 189 193 198 206 219 231 239 243 245 246 245 243 241 239 242 253 273 290 298 304 306 294 198 121 63 360 346 353 356 354 354
359 7 9 5 359 356 11 35 48 51 45 45 54 62 61 58 56 52 47 45 47 51 53 53 54 58 61 61 62 63 63 62 66 80 95 106 111 114 119 126 129 130 132 134 135 136 135 131 128 135 144 148 159 183 194 196 204 221 234 238 235 230 225 216 207 200 198 198 198 209 344 342 335 336 341 345 149 138 94 15 351 349 350 352 357
354 6 8 9 13 24 42 55 62 64 59 56 61 68 69 63 61 61 58 53 53 56 59 59 60 65 68 66 65 68 73 77 85 93 96 95 92 89 90 98 111 120 125 124 120 117 116 114 113 121 134 147 171 194 202 205 212 220 216 197 174 158 148 144 141 137 129 111 92 83 71 51 38 29 23 24 77 156 166 20 358 354 343 343 355
352 7 8 6 9 19 31 44 56 62 62 62 66 74 81 82 76 70 62 53 48 50 56 60 60 59 59 58 57 63 76 86 91 92 91 87 84 81 80 84 92 99 105 108 108 106 104 104 108 120 144 168 181 188 191 185 176 168 150 132 124 122 121 121 118 112 103 91 82 78 67 48 40 32 19 13 20 53 193 261 358 352 340 339 354
339 5 5 360 359 8 20 32 44 53 60 65 69 76 86 92 89 78 63 44 29 26 41 59 64 59 55 56 59 65 73 79 80 81 82 83 81 80 80 85 94 100 102 103 100 94 90 96 112 128 140 153 161 162 159 155 150 144 135 124 119 116 115 113 110 102 93 84 76 67 48 30 27 22 9 5 12 16 12 5 352 342 336 336 343
272 341 349 349 354 3 11 18 28 38 53 67 74 78 82 86 89 87 75 56 37 22 26 50 65 63 56 53 55 61 70 76 76 76 76 77 78 81 85 90 95 97 94 91 89 86 89 103 120 127 131 138 144 145 145 146 146 143 137 129 124 119 115 114 108 96 84 78 68 44 10 350 351 357 356 354 358 6 12 359 333 330 334 336 330